TimeEST,TemperatureF,Dew PointF,Humidity,Sea Level PressureIn,VisibilityMPH,Wind Direction,Wind SpeedMPH,Gust SpeedMPH,PrecipitationIn,Events,Conditions,WindDirDegrees,DateUTC
12:52 AM,42.1,34.0,73,30.59,10.0,NE,8.1,-,N/A,,Mostly Cloudy,50,2012-11-18 05:52:00
1:52 AM,41.0,35.1,79,30.60,10.0,NE,4.6,-,N/A,,Mostly Cloudy,40,2012-11-18 06:52:00
2:52 AM,42.1,37.0,82,30.59,10.0,NE,6.9,-,N/A,,Overcast,40,2012-11-18 07:52:00
3:52 AM,42.1,37.0,82,30.59,10.0,NNE,8.1,-,N/A,,Overcast,30,2012-11-18 08:52:00
4:52 AM,41.0,36.0,82,30.61,10.0,NE,5.8,-,N/A,,Partly Cloudy,50,2012-11-18 09:52:00
5:52 AM,41.0,36.0,82,30.61,10.0,NE,6.9,-,N/A,,Partly Cloudy,40,2012-11-18 10:52:00
6:52 AM,41.0,36.0,82,30.61,10.0,NE,8.1,-,N/A,,Scattered Clouds,50,2012-11-18 11:52:00
7:52 AM,42.1,35.1,76,30.62,10.0,NE,10.4,-,N/A,,Mostly Cloudy,40,2012-11-18 12:52:00
8:52 AM,45.0,36.0,71,30.62,10.0,NE,10.4,-,N/A,,Mostly Cloudy,40,2012-11-18 13:52:00
9:52 AM,46.9,36.0,66,30.61,10.0,ENE,12.7,-,N/A,,Mostly Cloudy,60,2012-11-18 14:52:00
10:52 AM,50.0,37.0,61,30.61,10.0,NE,11.5,-,N/A,,Mostly Cloudy,50,2012-11-18 15:52:00
11:52 AM,52.0,39.0,61,30.59,10.0,NE,11.5,-,N/A,,Mostly Cloudy,50,2012-11-18 16:52:00
12:52 PM,52.0,39.0,61,30.57,10.0,NE,13.8,-,N/A,,Mostly Cloudy,40,2012-11-18 17:52:00
1:52 PM,52.0,39.0,61,30.54,10.0,ENE,12.7,-,N/A,,Mostly Cloudy,60,2012-11-18 18:52:00
2:52 PM,53.1,37.9,57,30.54,10.0,NE,11.5,20.7,N/A,,Mostly Cloudy,40,2012-11-18 19:52:00
3:52 PM,51.1,39.0,63,30.54,10.0,ENE,13.8,-,N/A,,Overcast,60,2012-11-18 20:52:00
4:52 PM,50.0,39.0,66,30.54,10.0,NE,10.4,-,N/A,,Overcast,50,2012-11-18 21:52:00
5:52 PM,48.9,37.9,66,30.54,10.0,NNE,9.2,-,N/A,,Mostly Cloudy,30,2012-11-18 22:52:00
6:52 PM,48.0,37.9,68,30.55,10.0,NNE,6.9,-,N/A,,Mostly Cloudy,30,2012-11-18 23:52:00
7:52 PM,48.0,37.9,68,30.56,10.0,NNE,6.9,-,N/A,,Mostly Cloudy,30,2012-11-19 00:52:00
8:52 PM,48.0,37.9,68,30.54,10.0,NNE,10.4,-,N/A,,Mostly Cloudy,20,2012-11-19 01:52:00
9:52 PM,48.9,37.9,66,30.54,10.0,NE,10.4,-,N/A,,Overcast,40,2012-11-19 02:52:00
10:52 PM,48.9,37.9,66,30.53,10.0,NE,9.2,-,N/A,,Mostly Cloudy,50,2012-11-19 03:52:00
11:52 PM,48.9,37.9,66,30.52,10.0,NE,9.2,-,N/A,,Mostly Cloudy,40,2012-11-19 04:52:00